[[{"header":{"parameterUnit":"m.s-1","parameterCategory":1,"la1":30.2991,"la2":30.254,"lo1":-89.0895,"lo2":-89.0444,"dy":0.0017,"dx":0.0017,"nx":28,"ny":28,"refTime":"2025-11-08T09:00:00:Z","depth":0,"parameterNumber":2,"parameterNumberName":"U-component_of_WINDS"},"data":[0,0,0,0,0,0,0,0,0,0,0,0,0,0,0,0,0,0,0,0,0,0,0,0,0,0,0,0,0,0,0,0,0,0,0,0,0,0,0,0,0,0,0,0,0,0,0,0,0,0,0,0,0,0,0,0,0,0,4.0523,4.0525,0,4.0695,4.0697,4.0699,4.0681,4.0678,4.0676,4.0673,4.0852,4.0859,4.0866,0,0,0,0,0,0,0,0,0,0,0,0,0,4.0181,4.0187,4.0523,4.0525,4.0527,4.0695,4.0697,4.0699,4.0682,4.0678,4.0675,4.0672,4.0849,4.0858,4.0867,0,0,0,0,0,0,0,0,0,0,0,0,0,4.0339,4.0189,4.0522,4.0538,4.0541,4.0694,4.0697,4.07,4.0682,4.0678,4.0674,4.067,4.0847,4.0857,4.0868,4.1016,0,0,4.0901,4.0906,0,0,0,0,0,0,0,0,4.033,4.0352,4.0534,4.0537,4.0541,4.0662,4.0642,4.0806,4.0683,4.0629,4.0673,4.0668,4.0792,4.0807,4.0849,4.1025,4.1032,4.0902,4.0909,4.0914,4.0917,0,0,0,0,0,0,0,4.0319,4.0344,4.0591,4.0536,4.0541,4.0538,4.0556,4.0673,4.0731,4.0633,4.0632,4.0653,4.0793,4.0838,4.0853,4.1035,4.0902,4.0912,4.0918,4.0923,4.1343,4.1348,0,0,0,0,0,0,4.0304,4.0335,4.0585,4.0596,4.0423,4.0547,4.0567,4.0628,4.073,4.0742,4.0656,4.0652,4.0821,4.084,4.0859,4.1041,4.0913,4.0924,4.093,4.1339,4.1345,4.135,0,0,0,0,0,0,4.0297,4.0326,4.0578,4.0465,4.0497,4.0557,4.0625,4.0633,4.0678,4.0747,4.0758,4.0691,4.0819,4.0843,4.0978,4.1046,4.0929,4.0938,4.1333,4.1341,4.1347,4.1404,0,0,0,0,0,0,4.0287,4.0324,4.038,4.0467,4.0503,4.0694,4.063,4.0639,4.0696,4.0692,4.0783,4.0794,4.0818,4.0961,4.0988,4.1059,4.0947,4.1328,4.1337,4.1345,4.1397,4.1412,4.1426,0,0,0,0,0,4.0275,4.039,4.0383,4.0413,4.0575,4.0697,4.0718,4.0743,4.0702,4.076,4.0805,4.0791,4.1034,4.0975,4.1006,4.1081,4.1323,4.1334,4.1344,4.139,4.1409,4.1426,0,0,0,0,0,0,4.031,4.0401,4.0395,4.0541,4.0612,4.0694,4.0768,4.0762,4.0847,4.0839,4.0866,4.0887,4.1023,4.1065,4.0998,4.1231,4.1174,4.1191,4.1198,4.1217,4.1231,4.1219,4.0956,0,0,0,0,0,4.0335,4.0426,4.0501,4.0623,4.0658,4.0707,4.0761,4.0774,4.0849,4.0879,4.0933,4.1007,4.11,4.1161,4.125,4.1403,4.1423,4.1469,4.1484,4.1496,4.151,4.1596,4.1618,4.1384,4.1384,4.1384,0,0,4.0387,4.0448,4.0504,4.0631,4.0687,4.0782,4.0732,4.0834,4.0906,4.0894,4.1024,4.1067,4.1151,4.1295,4.1362,4.1335,4.1579,4.1509,4.1518,4.1526,4.1609,4.1631,4.165,4.1391,4.139,4.1388,0,0,4.053,4.0585,4.0693,4.0751,4.0836,4.0868,4.0894,4.0978,4.1006,4.1137,4.1131,4.1216,4.1376,4.1436,4.1488,4.1656,4.1647,4.1684,4.1761,4.1844,4.1862,4.1879,4.194,4.1961,4.1698,4.1698,4.1699,0,4.0584,4.0726,4.0749,4.0853,4.091,4.0904,4.1014,4.1069,4.118,4.122,4.1188,4.1389,4.1445,4.1604,4.1645,4.1687,4.1718,4.1674,4.1857,4.1874,4.189,4.1948,4.1971,4.1702,4.1702,4.1702,4.1701,0,4.0789,4.0888,4.0965,4.1072,4.1138,4.1244,4.1284,4.1348,4.1356,4.1391,4.1525,4.1592,4.1696,4.1735,4.1743,4.1896,4.1876,4.1851,4.1794,4.1916,4.1971,4.1994,4.1708,4.1707,4.1706,4.1705,0,0,4.0959,4.1078,4.1106,4.1155,4.125,4.1327,4.1434,4.1535,4.159,4.1667,4.1758,4.1894,4.1871,4.193,4.1945,4.2017,4.2148,4.1983,4.1986,4.2012,4.2321,4.234,4.2366,4.2142,4.2146,4.215,4.2314,0,4.1113,4.1301,4.1326,4.1493,4.1586,4.1582,4.1675,4.1744,4.178,4.1865,4.1905,4.2001,4.1963,4.1999,4.2071,4.2116,4.221,4.2105,4.2228,4.2232,4.2208,4.2394,4.2415,4.2567,4.2336,4.234,4.2343,0,4.1317,4.14,4.1576,4.1659,4.1699,4.1782,4.1878,4.1958,4.2036,4.2058,4.2124,4.213,4.2242,4.218,4.2336,4.2263,4.2316,4.2346,4.2352,4.2365,4.2295,4.2413,4.2616,4.2639,4.2377,4.2374,4.2372,0,4.1425,4.158,4.1706,4.1748,4.1848,4.1907,4.1951,4.2026,4.2085,4.2169,4.2208,4.2303,4.2356,4.243,4.2463,4.2415,4.2617,4.2557,4.2639,4.2638,4.2682,4.2678,4.2896,4.2714,4.2714,4.2713,4.2713,0,4.1594,4.1702,4.1756,4.1834,4.1955,4.1983,4.2103,4.2146,4.2212,4.2299,4.2302,4.2383,4.2421,4.2508,4.2535,4.266,4.2684,4.2705,4.2711,4.2705,4.2702,4.274,4.273,4.2719,4.2718,4.2717,4.2716,0,4.1735,4.1775,4.1912,4.1996,4.2019,4.2106,4.2177,4.2253,4.2289,4.2399,4.2426,4.2483,4.2586,4.2626,4.2752,4.277,4.2915,4.2912,4.2888,4.289,4.2969,4.2961,4.3219,4.3254,4.3048,4.305,4.3052,0,4.184,4.1924,4.2016,4.2074,4.2121,4.2214,4.2275,4.2306,4.2369,4.2466,4.253,4.2633,4.2717,4.2883,4.2936,4.3033,4.3033,4.3116,4.3047,4.3039,4.3035,4.303,4.3039,4.3129,4.3131,4.3133,4.3134,0,4.2024,4.204,4.2127,4.2222,4.2295,4.2371,4.2445,4.2493,4.2535,4.2606,4.2712,4.2777,4.2906,4.3009,4.3109,4.3156,4.3153,4.3156,4.318,4.3175,4.3158,4.3169,4.2924,4.315,4.3148,4.3147,4.3146,4.3146,4.2151,4.2225,4.2302,4.24,4.2459,4.2529,4.2604,4.265,4.2738,4.2845,4.2858,4.2972,4.305,4.3184,4.3235,4.3325,4.3303,4.3338,4.3346,4.3355,4.3361,4.3143,4.3343,4.3343,4.3342,4.3342,4.3342,0,4.2335,4.2385,4.2474,4.2578,4.2655,4.2645,4.2727,4.2793,4.2892,4.2965,4.3047,4.317,4.3269,4.333,4.3431,4.3492,4.3493,4.3517,4.3513,4.3524,4.3374,4.3344,4.3514,4.3514,4.3514,4.3514,4.3514,4.3514,4.244,4.2566,4.2591,4.2747,4.2796,4.2907,4.2955,4.3019,4.3077,4.3213,4.3296,4.3335,4.3404,4.3509,4.3601,4.3616,4.3654,4.368,4.3694,4.3552,4.3535,4.3518,4.3489,4.3688,4.3688,4.3836,4.3838,4.3839]},{"header":{"parameterUnit":"m.s-1","parameterCategory":1,"la1":30.2991,"la2":30.254,"lo1":-89.0895,"lo2":-89.0444,"dy":0.0017,"dx":0.0017,"nx":28,"ny":28,"refTime":"2025-11-08T09:00:00:Z","depth":0,"parameterNumber":3,"parameterNumberName":"V-component_of_WINDS"},"data":[0,0,0,0,0,0,0,0,0,0,0,0,0,0,0,0,0,0,0,0,0,0,0,0,0,0,0,0,0,0,0,0,0,0,0,0,0,0,0,0,0,0,0,0,0,0,0,0,0,0,0,0,0,0,0,0,0,0,0.3915,0.3915,0,0.3934,0.3934,0.3934,0.3943,0.3943,0.3943,0.3943,0.3962,0.3962,0.3963,0,0,0,0,0,0,0,0,0,0,0,0,0,0.3885,0.3885,0.3915,0.3915,0.3915,0.3934,0.3934,0.3935,0.3943,0.3943,0.3943,0.3942,0.3962,0.3962,0.3963,0,0,0,0,0,0,0,0,0,0,0,0,0,0.39,0.3886,0.3915,0.3922,0.3922,0.3934,0.3934,0.3935,0.3943,0.3943,0.3943,0.3942,0.3961,0.3962,0.3963,0.3969,0,0,0.3966,0.3966,0,0,0,0,0,0,0,0,0.39,0.3901,0.392,0.3921,0.3922,0.3936,0.3931,0.3946,0.3943,0.3935,0.3943,0.3942,0.3953,0.3955,0.3958,0.397,0.3971,0.3966,0.3966,0.3967,0.3967,0,0,0,0,0,0,0,0.3898,0.3901,0.3922,0.3921,0.3922,0.3924,0.3926,0.3934,0.3944,0.3936,0.3936,0.3938,0.3954,0.3958,0.3959,0.3971,0.3966,0.3966,0.3967,0.3967,0.3988,0.3989,0,0,0,0,0,0,0.3896,0.39,0.3922,0.3923,0.391,0.3924,0.3927,0.3932,0.3944,0.3946,0.3938,0.3939,0.3956,0.3958,0.396,0.3968,0.3967,0.3967,0.3968,0.3988,0.3988,0.3989,0,0,0,0,0,0,0.3896,0.3898,0.3921,0.3912,0.3915,0.3925,0.393,0.3932,0.3936,0.3946,0.3948,0.3941,0.3956,0.3959,0.3967,0.3968,0.3968,0.3968,0.3988,0.3988,0.3989,0.3983,0,0,0,0,0,0,0.3895,0.3898,0.39,0.3912,0.3915,0.3928,0.393,0.3932,0.3937,0.3938,0.3949,0.395,0.3956,0.3965,0.3968,0.3969,0.3969,0.3988,0.3988,0.3988,0.3983,0.3983,0.3983,0,0,0,0,0,0.3894,0.3898,0.3901,0.3903,0.3919,0.3928,0.393,0.3937,0.3937,0.394,0.3947,0.395,0.3968,0.3966,0.3969,0.3971,0.3988,0.3988,0.3988,0.3983,0.3983,0.3983,0,0,0,0,0,0,0.3887,0.39,0.3903,0.3911,0.3918,0.3929,0.3933,0.3936,0.3944,0.3944,0.3952,0.3954,0.3962,0.3967,0.3965,0.3977,0.3978,0.3979,0.3974,0.3973,0.3973,0.3972,0.397,0,0,0,0,0,0.3886,0.3893,0.3904,0.391,0.3914,0.3923,0.3927,0.3932,0.394,0.3943,0.395,0.3958,0.3965,0.3969,0.3977,0.3984,0.3986,0.3987,0.3987,0.3986,0.3987,0.3991,0.3991,0.3989,0.3989,0.3989,0,0,0.3886,0.3893,0.3897,0.3909,0.3915,0.3922,0.3925,0.3932,0.3937,0.3944,0.3952,0.3958,0.3966,0.3974,0.3978,0.3979,0.3988,0.3987,0.3986,0.3987,0.3991,0.3991,0.3992,0.3989,0.3989,0.3989,0,0,0.3887,0.3894,0.39,0.3906,0.3916,0.3921,0.3923,0.3933,0.3937,0.3945,0.395,0.3956,0.3969,0.3975,0.3979,0.3983,0.3987,0.3985,0.3984,0.3988,0.3988,0.3989,0.399,0.399,0.3986,0.3986,0.3985,0,0.3885,0.3895,0.3902,0.3909,0.3914,0.392,0.3926,0.3932,0.3943,0.3947,0.3947,0.3963,0.3969,0.3978,0.3979,0.3983,0.3984,0.3984,0.3988,0.3988,0.3988,0.399,0.399,0.3985,0.3985,0.3985,0.3985,0,0.3892,0.3899,0.3903,0.3913,0.3919,0.3925,0.3933,0.3938,0.3942,0.3947,0.3955,0.3963,0.3972,0.3975,0.3979,0.3984,0.3984,0.3986,0.3988,0.3988,0.399,0.399,0.3985,0.3985,0.3985,0.3985,0,0,0.389,0.3905,0.3906,0.3911,0.3922,0.3927,0.3934,0.3942,0.3946,0.3953,0.3959,0.3969,0.3971,0.3976,0.3981,0.3984,0.3986,0.3986,0.3986,0.3985,0.3993,0.3991,0.3992,0.3989,0.3989,0.3989,0.3992,0,0.3894,0.3906,0.3912,0.3921,0.3928,0.3933,0.3939,0.3946,0.3951,0.3958,0.3963,0.397,0.3972,0.3975,0.3979,0.3985,0.3988,0.3985,0.3994,0.3994,0.3991,0.3993,0.3991,0.3994,0.3993,0.3993,0.3993,0,0.3899,0.3906,0.3916,0.3926,0.3929,0.3934,0.3942,0.3948,0.3956,0.396,0.3965,0.397,0.3977,0.3977,0.3986,0.3984,0.3988,0.3992,0.3992,0.3993,0.3993,0.3994,0.3995,0.3995,0.3994,0.3994,0.3994,0,0.3897,0.3909,0.3917,0.3921,0.3932,0.3936,0.3941,0.3949,0.3953,0.396,0.3964,0.3971,0.3976,0.3981,0.3988,0.3987,0.3996,0.3997,0.3999,0.3999,0.4001,0.4001,0.4003,0.4003,0.4003,0.4003,0.4003,0,0.39,0.3906,0.3916,0.3921,0.3927,0.3934,0.3941,0.3946,0.3953,0.3958,0.3964,0.3969,0.3977,0.3983,0.3988,0.3995,0.3996,0.3999,0.4001,0.3999,0.3999,0.4002,0.4002,0.4003,0.4003,0.4003,0.4003,0,0.3899,0.3906,0.3914,0.3925,0.3927,0.3932,0.394,0.3945,0.395,0.3957,0.3959,0.3968,0.3975,0.3982,0.3992,0.3995,0.4002,0.4003,0.3999,0.4,0.4001,0.4001,0.4006,0.4007,0.4006,0.4006,0.4006,0,0.39,0.3905,0.3916,0.392,0.3925,0.3931,0.3936,0.3943,0.3948,0.3957,0.3961,0.3968,0.3975,0.3986,0.3993,0.4,0.4002,0.4003,0.4003,0.4001,0.4002,0.4002,0.4002,0.4003,0.4003,0.4003,0.4003,0,0.3902,0.3906,0.3912,0.392,0.3926,0.3933,0.3939,0.3942,0.3951,0.3956,0.3963,0.3968,0.3978,0.3986,0.3994,0.3998,0.4002,0.4003,0.4004,0.4002,0.4,0.4001,0.3999,0.4003,0.4003,0.4003,0.4003,0.4003,0.3903,0.3907,0.3915,0.3923,0.3928,0.3934,0.3939,0.3945,0.3952,0.396,0.3964,0.3972,0.3979,0.399,0.3995,0.4001,0.4002,0.4003,0.4003,0.4003,0.4003,0.3998,0.4002,0.4002,0.4002,0.4002,0.4002,0,0.3905,0.391,0.3917,0.3926,0.3932,0.3935,0.3943,0.3947,0.3954,0.3961,0.3967,0.3975,0.3983,0.399,0.3997,0.4,0.4002,0.4002,0.4002,0.4003,0.4002,0.4,0.4001,0.4001,0.4001,0.4001,0.4001,0.4001,0.3907,0.3914,0.3918,0.3929,0.3934,0.3942,0.3946,0.3951,0.3957,0.3966,0.3972,0.3977,0.3984,0.3992,0.3998,0.4,0.4003,0.4002,0.4004,0.4003,0.4003,0.4003,0.4002,0.4002,0.4002,0.4005,0.4005,0.4005]}]]